Home   Weather   Knarvik   Past weeks

Flag for Norway Past Weather in Knarvik, Norway — Yesterday and Last 2 Weeks

Now
42 °F

Quite cool.


Feels Like: 37 °F
Forecast: 39 / 50 °F
Wind: 7 mph from East

Location: Bergen / Florida

Current Time: Apr 28, 2017 at 5:01:03 am

Latest Report: Apr 28, 2017 at 4:00 am


Visibility: N/A

Pressure: 29.88 "Hg

Humidity: 40%

Dew Point: 19 °F

Location of KnarvikLocation

Past Weather in Knarvik — Graph

°F

Knarvik Temperature Yesterday

Maximum temperature yesterday: 52 °F (at 5:00 pm)
Minimum temperature yesterday: 35 °F (at 1:00 am)
Average temperature yesterday: 42 °F

High & Low Weather Summary for the Past Weeks

 TemperatureHumidityPressure
High52 °F (Apr 27, 5:00 pm)89% (Apr 20, 11:00 am)30.58 "Hg (Apr 20, 11:00 am)
Low31 °F (Apr 14, 6:00 am)26% (Apr 25, 6:00 pm)29.53 "Hg (Apr 13, 3:00 am)
Average41 °F68%29.93 "Hg
* Reported Apr 13 3:00 am — Apr 28 3:00 am, Knarvik, Weather by CustomWeather, © 2017

Note: Actual official high and low records may vary slightly from our data, if they occured in-between our weather recording intervals... More about our weather records

Advertising

Knarvik Weather History for the Previous 24 Hours

Scroll right to see more
 ConditionsComfort  
Time TempWeatherWind HumidityBarometerVisibility
3:00 am
Fri, Apr 28
43 °FQuite cool.8 mph39%29.87 "HgN/A
2:00 am42 °FQuite cool.9 mph42%29.85 "HgN/A
1:00 am42 °FQuite cool.5 mph44%29.84 "HgN/A
12:00 am41 °FQuite cool.2 mph51%29.83 "HgN/A
11:00 pm
Thu, Apr 27
42 °FPassing clouds.1 mph65%29.83 "Hg34 mi
10:00 pm45 °FQuite cool.2 mph43%29.82 "HgN/A
9:00 pm46 °FCool.5 mph39%29.80 "HgN/A
8:00 pm48 °FPassing clouds.7 mph39%29.80 "Hg34 mi
7:00 pm51 °FCool.7 mph36%29.79 "HgN/A
6:00 pm51 °FCool.2 mph43%29.78 "HgN/A
5:00 pm52 °FPartly sunny.3 mph42%29.78 "Hg34 mi
4:00 pm50 °FCool.2 mph48%29.79 "HgN/A
3:00 pm47 °FCool.3 mph61%29.78 "HgN/A
2:00 pm46 °FOvercast.2 mph65%29.78 "Hg34 mi
1:00 pm46 °FCool.3 mph69%29.77 "HgN/A
12:00 pm45 °FCool.2 mph69%29.76 "HgN/A
11:00 am41 °FDrizzle. Low clouds.2 mph80%29.76 "Hg16 mi
10:00 am39 °FChilly.2 mph79%29.75 "HgN/A
9:00 am39 °FChilly.1 mph75%29.72 "HgN/A
8:00 am38 °FDrizzle. Overcast.6 mph77%29.70 "Hg16 mi
7:00 am38 °FChilly.9 mph77%29.69 "HgN/A
6:00 am36 °FChilly.9 mph80%29.68 "HgN/A
5:00 am36 °FChilly.10 mph82%29.69 "HgN/A
Weather by CustomWeather, © 2017

See weather overviewHow to use our weather pages